| time (UTC) | temp F | wind direction | speed MPH | gust MPH | rain 1hr in | rain 24hr in | rain mn in | humidity % | barometer mb |
| 20260904133027 | 82 | 183 | 0.0 | 3.0 | 0.00 | 0.00 | 0.00 | 80 | 1015.4 |
| 20260904133001 | 78 | 115 | 1.0 | 3.0 | 0.00 | 0.00 | 0.00 | 42 | 1014.2 |
| 20260904132514 | 81 | 174 | 0.0 | 3.0 | 0.00 | 0.00 | 0.00 | 80 | 1015.4 |
| 20260904132003 | 80 | 242 | 0.0 | 4.0 | 0.00 | 0.00 | 0.00 | 82 | 1015.4 |
| 20260904131601 | 78 | 115 | 0.0 | 0.0 | 0.00 | 0.00 | 0.00 | 43 | 1014.0 |
| 20260904131508 | 79 | 251 | 0.0 | 4.0 | 0.00 | 0.00 | 0.00 | 82 | 1015.3 |
| 20260904131003 | 78 | 220 | 0.0 | 4.0 | 0.00 | 0.00 | 0.00 | 83 | 1015.2 |
| 20260904130504 | 78 | 210 | 0.0 | 4.0 | 0.00 | 0.00 | 0.00 | 84 | 1015.2 |
| 20260904130054 | 0 | 0.0 | 0.0 | 0.00 | 0.00 | 0.00 | 1013.9 | ||
| 20260904130017 | 78 | 225 | 2.0 | 4.0 | 0.00 | 0.00 | 0.00 | 84 | 1015.1 |
| 20260904125507 | 77 | 239 | 1.0 | 7.0 | 0.00 | 0.00 | 0.00 | 86 | 1015.1 |
| 20260904125012 | 76 | 244 | 1.0 | 7.0 | 0.00 | 0.00 | 0.00 | 86 | 1015.0 |
| 20260904124549 | 0 | 0.0 | 0.0 | 0.00 | 0.00 | 0.00 | 1013.7 | ||
| 20260904124523 | 76 | 184 | 1.0 | 5.0 | 0.00 | 0.00 | 0.00 | 87 | 1014.9 |
| 20260904124009 | 76 | 188 | 1.0 | 5.0 | 0.00 | 0.00 | 0.00 | 88 | 1014.8 |
| 20260904123514 | 75 | 247 | 2.0 | 5.0 | 0.00 | 0.00 | 0.00 | 88 | 1014.8 |
| 20260904123044 | 0 | 0.0 | 0.0 | 0.00 | 0.00 | 0.00 | 1013.6 | ||
| 20260904123026 | 75 | 194 | 1.0 | 5.0 | 0.00 | 0.00 | 0.00 | 89 | 1014.7 |
| 20260904122514 | 75 | 195 | 1.0 | 4.0 | 0.00 | 0.00 | 0.00 | 89 | 1014.6 |
| 20260904122012 | 75 | 165 | 1.0 | 5.0 | 0.00 | 0.00 | 0.00 | 89 | 1014.5 |
| 20260904121538 | 0 | 0.0 | 0.0 | 0.00 | 0.00 | 0.00 | 1013.2 | ||
| 20260904121530 | 74 | 184 | 3.0 | 5.0 | 0.00 | 0.00 | 0.00 | 90 | 1014.4 |
| 20260904121003 | 74 | 188 | 1.0 | 4.0 | 0.00 | 0.00 | 0.00 | 90 | 1014.3 |
| 20260904120503 | 74 | 196 | 1.0 | 5.0 | 0.00 | 0.00 | 0.00 | 90 | 1014.3 |
| 20260904120044 | 0 | 0.0 | 0.0 | 0.00 | 0.00 | 0.00 | 1013.1 | ||
| 20260904120016 | 74 | 212 | 3.0 | 5.0 | 0.00 | 0.00 | 0.00 | 90 | 1014.2 |
| 20260904115507 | 74 | 199 | 2.0 | 5.0 | 0.00 | 0.00 | 0.00 | 90 | 1014.1 |
| 20260904115004 | 74 | 199 | 2.0 | 5.0 | 0.00 | 0.00 | 0.00 | 89 | 1014.1 |
| 20260904114528 | 0 | 0.0 | 0.0 | 0.00 | 0.00 | 0.00 | 1013.1 | ||
| 20260904114514 | 74 | 178 | 2.0 | 5.0 | 0.00 | 0.00 | 0.00 | 89 | 1014.0 |
| 20260904114010 | 74 | 184 | 2.0 | 5.0 | 0.00 | 0.00 | 0.00 | 89 | 1014.1 |
| 20260904113508 | 74 | 187 | 2.0 | 5.0 | 0.00 | 0.00 | 0.00 | 89 | 1014.0 |
| 20260904113029 | 74 | 198 | 2.0 | 5.0 | 0.00 | 0.00 | 0.00 | 89 | 1014.0 |
| 20260904113021 | 0 | 0.0 | 0.0 | 0.00 | 0.00 | 0.00 | 1012.9 | ||
| 20260904112514 | 74 | 213 | 2.0 | 5.0 | 0.00 | 0.00 | 0.00 | 89 | 1014.1 |
| 20260904112017 | 74 | 208 | 2.0 | 5.0 | 0.00 | 0.00 | 0.00 | 89 | 1014.0 |
| 20260904111529 | 74 | 203 | 2.0 | 5.0 | 0.00 | 0.00 | 0.00 | 89 | 1014.1 |
| 20260904111517 | 0 | 0.0 | 0.0 | 0.00 | 0.00 | 0.00 | 1012.7 | ||
| 20260904111015 | 74 | 190 | 2.0 | 5.0 | 0.00 | 0.00 | 0.00 | 89 | 1014.1 |
| 20260904110514 | 75 | 208 | 3.0 | 5.0 | 0.00 | 0.00 | 0.00 | 89 | 1014.1 |
| 20260904110013 | 0 | 0.0 | 0.0 | 0.00 | 0.00 | 0.00 | 1012.8 | ||
| 20260904110009 | 75 | 180 | 2.0 | 6.0 | 0.00 | 0.00 | 0.00 | 89 | 1014.0 |
| 20260904105503 | 75 | 194 | 2.0 | 6.0 | 0.00 | 0.00 | 0.00 | 89 | 1014.1 |
| 20260904105003 | 75 | 202 | 2.0 | 6.0 | 0.00 | 0.00 | 0.00 | 88 | 1014.2 |
| 20260904104520 | 75 | 191 | 2.0 | 6.0 | 0.00 | 0.00 | 0.00 | 88 | 1014.3 |
| 20260904104507 | 0 | 0.0 | 0.0 | 0.00 | 0.00 | 0.00 | 1012.7 | ||
| 20260904104007 | 75 | 203 | 1.0 | 5.0 | 0.00 | 0.00 | 0.00 | 88 | 1014.3 |
| 20260904103509 | 75 | 222 | 2.0 | 5.0 | 0.00 | 0.00 | 0.00 | 88 | 1014.4 |
| 20260904103024 | 75 | 213 | 2.0 | 5.0 | 0.00 | 0.00 | 0.00 | 88 | 1014.4 |
| 20260904103011 | 0 | 117 | 0.0 | 3.0 | 0.00 | 0.00 | 0.00 | 56 | 1012.5 |
| 20260904102512 | 75 | 196 | 2.0 | 5.0 | 0.00 | 0.00 | 0.00 | 88 | 1014.4 |
| 20260904102009 | 75 | 198 | 2.0 | 4.0 | 0.00 | 0.00 | 0.00 | 88 | 1014.4 |
| 20260904101559 | 76 | 117 | 0.0 | 0.0 | 0.00 | 0.00 | 0.00 | 60 | 1012.4 |
| 20260904101527 | 75 | 192 | 1.0 | 4.0 | 0.00 | 0.00 | 0.00 | 88 | 1014.4 |
| 20260904101012 | 75 | 200 | 1.0 | 4.0 | 0.00 | 0.00 | 0.00 | 88 | 1014.5 |
| 20260904100517 | 75 | 231 | 0.0 | 4.0 | 0.00 | 0.00 | 0.00 | 88 | 1014.5 |
| 20260904100055 | 77 | 117 | 0.0 | 1.0 | 0.00 | 0.00 | 0.00 | 61 | 1012.4 |
| 20260904100030 | 75 | 200 | 1.0 | 5.0 | 0.00 | 0.00 | 0.00 | 88 | 1014.5 |
| 20260904095516 | 76 | 169 | 0.0 | 5.0 | 0.00 | 0.00 | 0.00 | 88 | 1014.5 |
| 20260904095003 | 76 | 239 | 1.0 | 6.0 | 0.00 | 0.00 | 0.00 | 88 | 1014.5 |
| 20260904094552 | 77 | 117 | 0.0 | 1.0 | 0.00 | 0.00 | 0.00 | 63 | 1012.5 |
| 20260904094514 | 76 | 186 | 2.0 | 6.0 | 0.00 | 0.00 | 0.00 | 88 | 1014.5 |
| 20260904094004 | 76 | 202 | 1.0 | 5.0 | 0.00 | 0.00 | 0.00 | 88 | 1014.6 |
| 20260904093508 | 76 | 191 | 2.0 | 6.0 | 0.00 | 0.00 | 0.00 | 87 | 1014.6 |
| 20260904093053 | 78 | 117 | 0.0 | 3.0 | 0.00 | 0.00 | 0.00 | 63 | 1012.6 |
| 20260904093047 | 76 | 250 | 1.0 | 6.0 | 0.00 | 0.00 | 0.00 | 87 | 1014.5 |
| 20260904092511 | 76 | 214 | 2.0 | 5.0 | 0.00 | 0.00 | 0.00 | 87 | 1014.6 |
| 20260904092011 | 76 | 173 | 2.0 | 5.0 | 0.00 | 0.00 | 0.00 | 87 | 1014.6 |
| 20260904091546 | 78 | 117 | 0.0 | 5.0 | 0.00 | 0.00 | 0.00 | 63 | 1012.7 |
| 20260904091525 | 76 | 206 | 1.0 | 6.0 | 0.00 | 0.00 | 0.00 | 87 | 1014.6 |
| 20260904091013 | 77 | 193 | 3.0 | 6.0 | 0.00 | 0.00 | 0.00 | 86 | 1014.5 |
| 20260904090514 | 77 | 225 | 1.0 | 7.0 | 0.00 | 0.00 | 0.00 | 86 | 1014.5 |
| 20260904090044 | 78 | 109 | 4.0 | 6.0 | 0.00 | 0.00 | 0.00 | 63 | 1012.7 |
| 20260904090028 | 77 | 178 | 1.0 | 7.0 | 0.00 | 0.00 | 0.00 | 86 | 1014.5 |
| 20260904085516 | 77 | 176 | 3.0 | 7.0 | 0.00 | 0.00 | 0.00 | 86 | 1014.5 |
| 20260904085015 | 77 | 309 | 3.0 | 7.0 | 0.00 | 0.00 | 0.00 | 86 | 1014.5 |
| 20260904084544 | 78 | 113 | 4.0 | 7.0 | 0.00 | 0.00 | 0.00 | 63 | 1012.6 |
| 20260904084530 | 77 | 189 | 3.0 | 8.0 | 0.00 | 0.00 | 0.00 | 86 | 1014.4 |
| 20260904084018 | 77 | 213 | 3.0 | 9.0 | 0.00 | 0.00 | 0.00 | 86 | 1014.4 |
| 20260904083503 | 77 | 185 | 3.0 | 9.0 | 0.00 | 0.00 | 0.00 | 86 | 1014.5 |
| 20260904083040 | 78 | 111 | 6.0 | 9.0 | 0.00 | 0.00 | 0.00 | 63 | 1012.5 |
| 20260904083013 | 77 | 178 | 4.0 | 8.0 | 0.00 | 0.00 | 0.00 | 86 | 1014.4 |
| 20260904082509 | 77 | 190 | 2.0 | 6.0 | 0.00 | 0.00 | 0.00 | 86 | 1014.3 |
| 20260904082009 | 78 | 175 | 2.0 | 6.0 | 0.00 | 0.00 | 0.00 | 86 | 1014.2 |
| 20260904081537 | 78 | 109 | 6.0 | 9.0 | 0.00 | 0.00 | 0.00 | 63 | 1012.5 |
| 20260904081521 | 78 | 209 | 3.0 | 8.0 | 0.00 | 0.00 | 0.00 | 86 | 1014.1 |
| 20260904081010 | 78 | 220 | 2.0 | 8.0 | 0.00 | 0.00 | 0.00 | 86 | 1014.3 |
| 20260904080510 | 78 | 180 | 2.0 | 7.0 | 0.00 | 0.00 | 0.00 | 86 | 1014.3 |
| 20260904080037 | 78 | 120 | 3.0 | 9.0 | 0.00 | 0.00 | 0.00 | 63 | 1012.5 |
| 20260904080024 | 78 | 196 | 3.0 | 6.0 | 0.00 | 0.00 | 0.00 | 86 | 1014.3 |
| 20260904075512 | 78 | 209 | 3.0 | 6.0 | 0.00 | 0.00 | 0.00 | 86 | 1014.3 |
| 20260904075015 | 78 | 180 | 3.0 | 7.0 | 0.00 | 0.00 | 0.00 | 86 | 1014.2 |
| 20260904074541 | 78 | 130 | 6.0 | 8.0 | 0.00 | 0.00 | 0.00 | 63 | 1012.6 |
| 20260904074528 | 78 | 203 | 3.0 | 7.0 | 0.00 | 0.00 | 0.00 | 86 | 1014.2 |
| 20260904074019 | 78 | 173 | 2.0 | 6.0 | 0.00 | 0.00 | 0.00 | 86 | 1014.2 |
| 20260904073516 | 78 | 215 | 3.0 | 6.0 | 0.00 | 0.00 | 0.00 | 86 | 1014.3 |
| 20260904073048 | 78 | 195 | 2.0 | 4.0 | 0.00 | 0.00 | 0.00 | 86 | 1014.3 |
| 20260904073035 | 78 | 124 | 4.0 | 8.0 | 0.00 | 0.00 | 0.00 | 63 | 1012.7 |
| 20260904072506 | 78 | 180 | 2.0 | 5.0 | 0.00 | 0.00 | 0.00 | 86 | 1014.3 |
| 20260904072006 | 78 | 169 | 2.0 | 5.0 | 0.00 | 0.00 | 0.00 | 86 | 1014.3 |
| 20260904071529 | 78 | 123 | 3.0 | 6.0 | 0.00 | 0.00 | 0.00 | 63 | 1012.7 |
| 20260904071516 | 78 | 155 | 2.0 | 5.0 | 0.00 | 0.00 | 0.00 | 86 | 1014.4 |
| 20260904071010 | 78 | 202 | 2.0 | 5.0 | 0.00 | 0.00 | 0.00 | 86 | 1014.5 |
| 20260904070508 | 78 | 209 | 2.0 | 5.0 | 0.00 | 0.00 | 0.00 | 86 | 1014.5 |
| 20260904070027 | 78 | 119 | 0.0 | 5.0 | 0.00 | 0.00 | 0.00 | 63 | 1012.7 |
| 20260904070023 | 78 | 207 | 3.0 | 5.0 | 0.00 | 0.00 | 0.00 | 86 | 1014.7 |
| 20260904065515 | 78 | 191 | 2.0 | 5.0 | 0.00 | 0.00 | 0.00 | 86 | 1014.7 |
| 20260904065014 | 79 | 201 | 2.0 | 5.0 | 0.00 | 0.00 | 0.00 | 86 | 1014.8 |
| 20260904064529 | 79 | 173 | 2.0 | 5.0 | 0.00 | 0.00 | 0.00 | 86 | 1014.9 |
| 20260904064014 | 79 | 194 | 2.0 | 4.0 | 0.00 | 0.00 | 0.00 | 86 | 1014.9 |
| 20260904063515 | 79 | 205 | 1.0 | 4.0 | 0.00 | 0.00 | 0.00 | 86 | 1015.0 |
| 20260904063031 | 79 | 190 | 1.0 | 4.0 | 0.00 | 0.00 | 0.00 | 86 | 1015.0 |
| 20260904063029 | 78 | 135 | 4.0 | 8.0 | 0.00 | 0.00 | 0.00 | 63 | 1012.7 |
| 20260904062522 | 79 | 192 | 2.0 | 5.0 | 0.00 | 0.00 | 0.00 | 86 | 1015.0 |
| 20260904062018 | 79 | 205 | 1.0 | 6.0 | 0.00 | 0.00 | 0.00 | 86 | 1015.0 |
| 20260904061518 | 78 | 141 | 6.0 | 11.0 | 0.00 | 0.00 | 0.00 | 63 | 1012.5 |
| 20260904061514 | 79 | 166 | 2.0 | 6.0 | 0.00 | 0.00 | 0.00 | 86 | 1015.0 |
| 20260904061008 | 79 | 172 | 2.0 | 4.0 | 0.00 | 0.00 | 0.00 | 86 | 1015.1 |
| 20260904060508 | 79 | 194 | 1.0 | 5.0 | 0.00 | 0.00 | 0.00 | 86 | 1015.2 |
| 20260904060020 | 79 | 194 | 1.0 | 5.0 | 0.00 | 0.00 | 0.00 | 87 | 1015.3 |
| 20260904060017 | 79 | 115 | 5.0 | 10.0 | 0.00 | 0.00 | 0.00 | 63 | 1012.7 |
| 20260904055511 | 79 | 164 | 1.0 | 6.0 | 0.00 | 0.00 | 0.00 | 87 | 1015.1 |
| 20260904055010 | 79 | 180 | 1.0 | 6.0 | 0.00 | 0.00 | 0.00 | 87 | 1015.1 |
| 20260904054527 | 79 | 157 | 2.0 | 4.0 | 0.00 | 0.00 | 0.00 | 87 | 1015.0 |
| 20260904054516 | 79 | 128 | 5.0 | 10.0 | 0.00 | 0.00 | 0.00 | 63 | 1012.6 |
| 20260904054012 | 79 | 184 | 1.0 | 5.0 | 0.00 | 0.00 | 0.00 | 87 | 1015.1 |
| 20260904053514 | 79 | 191 | 2.0 | 5.0 | 0.00 | 0.00 | 0.00 | 87 | 1015.0 |
| 20260904053033 | 79 | 234 | 1.0 | 5.0 | 0.00 | 0.00 | 0.00 | 87 | 1015.0 |
| 20260904053017 | 79 | 104 | 5.0 | 10.0 | 0.00 | 0.00 | 0.00 | 63 | 1012.7 |
| 20260904052515 | 79 | 173 | 0.0 | 5.0 | 0.00 | 0.00 | 0.00 | 87 | 1015.0 |
| 20260904052016 | 79 | 196 | 0.0 | 5.0 | 0.00 | 0.00 | 0.00 | 87 | 1014.9 |
| 20260904051531 | 79 | 165 | 1.0 | 5.0 | 0.00 | 0.00 | 0.00 | 87 | 1014.9 |
| 20260904051509 | 79 | 117 | 7.0 | 11.0 | 0.00 | 0.00 | 0.00 | 63 | 1012.6 |
| 20260904051016 | 79 | 152 | 1.0 | 4.0 | 0.00 | 0.00 | 0.00 | 86 | 1014.9 |
| 20260904050517 | 79 | 150 | 0.0 | 2.0 | 0.00 | 0.00 | 0.00 | 86 | 1014.9 |
| 20260904050018 | 79 | 89 | 0.0 | 0.0 | 0.00 | 0.00 | 0.00 | 86 | 1015.0 |
| 20260904050005 | 79 | 129 | 8.0 | 13.0 | 0.00 | 0.00 | 0.00 | 63 | 1012.7 |
| 20260904045508 | 79 | 89 | 0.0 | 0.0 | 0.00 | 0.00 | 0.00 | 85 | 1015.1 |
| 20260904045013 | 79 | 89 | 0.0 | 0.0 | 0.00 | 0.00 | 0.00 | 85 | 1015.1 |
| 20260904044524 | 79 | 89 | 0.0 | 0.0 | 0.00 | 0.00 | 0.00 | 85 | 1015.0 |
| 20260904044501 | 79 | 110 | 8.0 | 12.0 | 0.00 | 0.00 | 0.00 | 64 | 1012.6 |
| 20260904044014 | 79 | 89 | 0.0 | 0.0 | 0.00 | 0.00 | 0.00 | 84 | 1015.0 |
| 20260904043511 | 79 | 89 | 0.0 | 0.0 | 0.00 | 0.00 | 0.00 | 84 | 1015.0 |
| 20260904043108 | 79 | 105 | 9.0 | 13.0 | 0.00 | 0.00 | 0.00 | 64 | 1012.6 |
| 20260904043027 | 79 | 89 | 0.0 | 0.0 | 0.00 | 0.00 | 0.00 | 84 | 1015.1 |
| 20260904042515 | 79 | 89 | 0.0 | 1.0 | 0.00 | 0.00 | 0.00 | 83 | 1015.1 |
| 20260904042004 | 79 | 89 | 0.0 | 2.0 | 0.00 | 0.00 | 0.00 | 82 | 1015.1 |
| 20260904041558 | 79 | 98 | 9.0 | 14.0 | 0.00 | 0.00 | 0.00 | 63 | 1012.3 |
| 20260904041507 | 79 | 89 | 0.0 | 2.0 | 0.00 | 0.00 | 0.00 | 82 | 1015.2 |
| 20260904041003 | 79 | 89 | 0.0 | 1.0 | 0.00 | 0.00 | 0.00 | 81 | 1015.2 |
| 20260904040506 | 79 | 89 | 0.0 | 0.0 | 0.00 | 0.00 | 0.00 | 81 | 1015.2 |
| 20260904040054 | 80 | 117 | 7.0 | 13.0 | 0.00 | 0.00 | 0.00 | 63 | 1012.4 |
| 20260904040011 | 80 | 89 | 0.0 | 0.0 | 0.00 | 0.00 | 0.00 | 81 | 1015.3 |
| 20260904035508 | 80 | 89 | 0.0 | 0.0 | 0.00 | 0.00 | 0.00 | 80 | 1015.2 |
| 20260904035007 | 80 | 89 | 0.0 | 0.0 | 0.00 | 0.00 | 0.00 | 79 | 1015.2 |
| 20260904034552 | 80 | 115 | 9.0 | 13.0 | 0.00 | 0.00 | 0.00 | 63 | 1012.4 |
| 20260904034526 | 80 | 89 | 0.0 | 0.0 | 0.00 | 0.00 | 0.00 | 79 | 1015.2 |
| 20260904034012 | 81 | 89 | 0.0 | 0.0 | 0.00 | 0.00 | 0.00 | 79 | 1015.1 |
| 20260904033503 | 81 | 89 | 0.0 | 1.0 | 0.00 | 0.00 | 0.00 | 77 | 1015.1 |
| 20260904033051 | 80 | 111 | 8.0 | 12.0 | 0.00 | 0.00 | 0.00 | 62 | 1012.3 |
| 20260904033004 | 81 | 89 | 0.0 | 1.0 | 0.00 | 0.00 | 0.00 | 77 | 1015.1 |
| 20260904032506 | 81 | 89 | 0.0 | 1.0 | 0.00 | 0.00 | 0.00 | 76 | 1015.1 |
| 20260904032003 | 81 | 89 | 0.0 | 1.0 | 0.00 | 0.00 | 0.00 | 77 | 1015.1 |
| 20260904031550 | 80 | 106 | 6.0 | 12.0 | 0.00 | 0.00 | 0.00 | 61 | 1012.2 |
| 20260904031507 | 81 | 89 | 0.0 | 1.0 | 0.00 | 0.00 | 0.00 | 76 | 1015.0 |
| 20260904031003 | 81 | 89 | 0.0 | 1.0 | 0.00 | 0.00 | 0.00 | 76 | 1015.1 |
| 20260904030504 | 81 | 89 | 0.0 | 1.0 | 0.00 | 0.00 | 0.00 | 76 | 1015.1 |
| 20260904030045 | 81 | 136 | 7.0 | 14.0 | 0.00 | 0.00 | 0.00 | 61 | 1012.0 |
| 20260904030012 | 81 | 89 | 0.0 | 1.0 | 0.00 | 0.00 | 0.00 | 76 | 1015.1 |
| 20260904025504 | 81 | 89 | 0.0 | 3.0 | 0.00 | 0.00 | 0.00 | 76 | 1015.1 |
| 20260904025007 | 82 | 89 | 0.0 | 3.0 | 0.00 | 0.00 | 0.00 | 76 | 1015.1 |
| 20260904024542 | 81 | 126 | 8.0 | 15.0 | 0.00 | 0.00 | 0.00 | 61 | 1011.9 |
| 20260904024520 | 82 | 89 | 1.0 | 3.0 | 0.00 | 0.00 | 0.00 | 76 | 1015.0 |
| 20260904024008 | 82 | 89 | 0.0 | 6.0 | 0.00 | 0.00 | 0.00 | 75 | 1015.0 |
| 20260904023509 | 83 | 80 | 2.0 | 6.0 | 0.00 | 0.00 | 0.00 | 75 | 1014.9 |
| 20260904023039 | 81 | 133 | 8.0 | 13.0 | 0.00 | 0.00 | 0.00 | 60 | 1011.6 |
| 20260904023026 | 83 | 102 | 2.0 | 6.0 | 0.00 | 0.00 | 0.00 | 74 | 1014.9 |
| 20260904022512 | 84 | 84 | 1.0 | 3.0 | 0.00 | 0.00 | 0.00 | 74 | 1014.8 |
| 20260904022007 | 84 | 105 | 0.0 | 2.0 | 0.00 | 0.00 | 0.00 | 73 | 1014.7 |
| 20260904021548 | 82 | 110 | 8.0 | 14.0 | 0.00 | 0.00 | 0.00 | 59 | 1011.5 |
| 20260904021508 | 84 | 105 | 0.0 | 3.0 | 0.00 | 0.00 | 0.00 | 72 | 1014.7 |
| 20260904021003 | 84 | 105 | 1.0 | 3.0 | 0.00 | 0.00 | 0.00 | 72 | 1014.5 |
| 20260904020503 | 85 | 103 | 1.0 | 4.0 | 0.00 | 0.00 | 0.00 | 72 | 1014.4 |
| 20260904020035 | 82 | 112 | 7.0 | 12.0 | 0.00 | 0.00 | 0.00 | 59 | 1011.3 |
| 20260904020008 | 85 | 167 | 0.0 | 4.0 | 0.00 | 0.00 | 0.00 | 71 | 1014.4 |
| 20260904015504 | 85 | 199 | 1.0 | 4.0 | 0.00 | 0.00 | 0.00 | 71 | 1014.3 |
| 20260904015006 | 85 | 223 | 0.0 | 4.0 | 0.00 | 0.00 | 0.00 | 71 | 1014.2 |
| 20260904014538 | 83 | 98 | 8.0 | 12.0 | 0.00 | 0.00 | 0.00 | 57 | 1011.1 |
| 20260904014514 | 85 | 167 | 0.0 | 4.0 | 0.00 | 0.00 | 0.00 | 70 | 1014.1 |
| 20260904014008 | 85 | 173 | 1.0 | 4.0 | 0.00 | 0.00 | 0.00 | 70 | 1014.1 |
| 20260904013507 | 85 | 120 | 0.0 | 3.0 | 0.00 | 0.00 | 0.00 | 69 | 1014.1 |
| 20260904013032 | 83 | 124 | 11.0 | 16.0 | 0.00 | 0.00 | 0.00 | 56 | 1010.8 |
| 20260904013022 | 85 | 200 | 1.0 | 5.0 | 0.00 | 0.00 | 0.00 | 69 | 1014.0 |
| 20260904012512 | 85 | 200 | 1.0 | 5.0 | 0.00 | 0.00 | 0.00 | 68 | 1014.0 |
| 20260904012010 | 85 | 192 | 1.0 | 5.0 | 0.00 | 0.00 | 0.00 | 68 | 1014.1 |
| 20260904011546 | 84 | 108 | 9.0 | 16.0 | 0.00 | 0.00 | 0.00 | 54 | 1010.7 |
| 20260904011527 | 85 | 189 | 0.0 | 5.0 | 0.00 | 0.00 | 0.00 | 67 | 1014.1 |
| 20260904011005 | 85 | 180 | 0.0 | 5.0 | 0.00 | 0.00 | 0.00 | 66 | 1014.0 |
| 20260904010503 | 86 | 154 | 1.0 | 5.0 | 0.00 | 0.00 | 0.00 | 66 | 1014.0 |
| 20260904010029 | 85 | 110 | 11.0 | 19.0 | 0.00 | 0.00 | 0.00 | 53 | 1010.6 |
| 20260904010006 | 86 | 208 | 0.0 | 3.0 | 0.00 | 0.00 | 0.00 | 65 | 1014.1 |
| 20260904005504 | 86 | 123 | 0.0 | 2.0 | 0.00 | 0.00 | 0.00 | 64 | 1014.0 |
| 20260904005004 | 86 | 161 | 0.0 | 2.0 | 0.00 | 0.00 | 0.00 | 63 | 1013.9 |
| 20260904004525 | 86 | 110 | 12.0 | 18.0 | 0.00 | 0.00 | 0.00 | 51 | 1010.5 |
| 20260904004512 | 86 | 161 | 0.0 | 2.0 | 0.00 | 0.00 | 0.00 | 63 | 1013.9 |
| 20260904004008 | 87 | 126 | 0.0 | 2.0 | 0.00 | 0.00 | 0.00 | 63 | 1013.9 |
| 20260904003506 | 87 | 173 | 0.0 | 4.0 | 0.00 | 0.00 | 0.00 | 63 | 1013.7 |
| 20260904003024 | 87 | 169 | 1.0 | 4.0 | 0.00 | 0.00 | 0.00 | 63 | 1013.6 |
| 20260904003022 | 87 | 160 | 9.0 | 22.0 | 0.00 | 0.00 | 0.00 | 48 | 1010.5 |
| 20260904002508 | 88 | 188 | 0.0 | 2.0 | 0.00 | 0.00 | 0.00 | 65 | 1013.7 |
| 20260904002010 | 88 | 188 | 0.0 | 2.0 | 0.00 | 0.00 | 0.00 | 65 | 1013.6 |
| 20260904001524 | 88 | 200 | 0.0 | 2.0 | 0.00 | 0.00 | 0.00 | 65 | 1013.6 |
| 20260904001520 | 88 | 96 | 14.0 | 19.0 | 0.00 | 0.00 | 0.00 | 48 | 1010.5 |
| 20260904001013 | 88 | 185 | 0.0 | 3.0 | 0.00 | 0.00 | 0.00 | 65 | 1013.5 |
| 20260904000515 | 89 | 172 | 0.0 | 3.0 | 0.00 | 0.00 | 0.00 | 65 | 1013.6 |
| 20260904000030 | 89 | 189 | 1.0 | 4.0 | 0.00 | 0.00 | 0.00 | 64 | 1013.6 |
| 20260904000019 | 89 | 117 | 13.0 | 19.0 | 0.00 | 0.00 | 0.00 | 47 | 1010.1 |
| 20260903235504 | 89 | 176 | 1.0 | 6.0 | 0.00 | 0.00 | 0.00 | 64 | 1013.7 |
| 20260903235004 | 90 | 172 | 2.0 | 6.0 | 0.00 | 0.00 | 0.00 | 64 | 1014.0 |
| 20260903234517 | 89 | 98 | 12.0 | 21.0 | 0.00 | 0.00 | 0.00 | 47 | 1010.3 |
| 20260903234510 | 90 | 205 | 3.0 | 9.0 | 0.00 | 0.00 | 0.00 | 63 | 1014.0 |
| 20260903234007 | 90 | 165 | 2.0 | 9.0 | 0.00 | 0.00 | 0.00 | 63 | 1014.0 |
| 20260903233507 | 91 | 154 | 3.0 | 9.0 | 0.00 | 0.00 | 0.00 | 63 | 1013.9 |
| 20260903233118 | 90 | 116 | 13.0 | 22.0 | 0.00 | 0.00 | 0.00 | 46 | 1010.1 |
| 20260903233013 | 91 | 214 | 3.0 | 8.0 | 0.00 | 0.00 | 0.00 | 62 | 1013.9 |
| 20260903232511 | 92 | 207 | 1.0 | 5.0 | 0.00 | 0.00 | 0.00 | 63 | 1013.9 |
| 20260903232009 | 92 | 166 | 2.0 | 5.0 | 0.00 | 0.00 | 0.00 | 62 | 1013.9 |
| 20260903231521 | 92 | 281 | 0.0 | 2.0 | 0.00 | 0.00 | 0.00 | 61 | 1013.9 |
| 20260903231515 | 92 | 121 | 11.0 | 22.0 | 0.00 | 0.00 | 0.00 | 43 | 1009.8 |
| 20260903231013 | 92 | 281 | 0.0 | 3.0 | 0.00 | 0.00 | 0.00 | 63 | 1013.9 |
| 20260903230513 | 92 | 286 | 1.0 | 3.0 | 0.00 | 0.00 | 0.00 | 61 | 1013.9 |
| 20260903230045 | 93 | 260 | 0.0 | 4.0 | 0.00 | 0.00 | 0.00 | 61 | 1014.0 |
| 20260903230015 | 93 | 136 | 13.0 | 21.0 | 0.00 | 0.00 | 0.00 | 42 | 1009.8 |
| 20260903225515 | 93 | 281 | 0.0 | 5.0 | 0.00 | 0.00 | 0.00 | 60 | 1014.0 |
| 20260903225015 | 93 | 299 | 1.0 | 5.0 | 0.00 | 0.00 | 0.00 | 59 | 1014.1 |
| 20260903224524 | 94 | 120 | 13.0 | 19.0 | 0.00 | 0.00 | 0.00 | 41 | 1009.6 |
| 20260903224507 | 94 | 250 | 1.0 | 3.0 | 0.00 | 0.00 | 0.00 | 58 | 1014.2 |
| 20260903224005 | 94 | 217 | 0.0 | 2.0 | 0.00 | 0.00 | 0.00 | 62 | 1014.1 |
| 20260903223505 | 95 | 235 | 0.0 | 5.0 | 0.00 | 0.00 | 0.00 | 61 | 1014.1 |
| 20260903223013 | 95 | 204 | 1.0 | 5.0 | 0.00 | 0.00 | 0.00 | 58 | 1014.1 |
| 20260903223006 | 95 | 115 | 9.0 | 18.0 | 0.00 | 0.00 | 0.00 | 41 | 1009.6 |
| 20260903222509 | 95 | 161 | 0.0 | 2.0 | 0.00 | 0.00 | 0.00 | 57 | 1014.1 |
| 20260903222008 | 95 | 150 | 0.0 | 5.0 | 0.00 | 0.00 | 0.00 | 59 | 1014.1 |
| 20260903221519 | 95 | 241 | 1.0 | 5.0 | 0.00 | 0.00 | 0.00 | 58 | 1014.1 |
| 20260903221502 | 94 | 122 | 14.0 | 21.0 | 0.00 | 0.00 | 0.00 | 42 | 1009.6 |
| 20260903221012 | 94 | 196 | 2.0 | 4.0 | 0.00 | 0.00 | 0.00 | 58 | 1014.0 |
| 20260903220519 | 94 | 192 | 1.0 | 3.0 | 0.00 | 0.00 | 0.00 | 57 | 1013.9 |
| 20260903220108 | 94 | 133 | 6.0 | 21.0 | 0.00 | 0.00 | 0.00 | 42 | 1009.7 |
| 20260903220026 | 95 | 268 | 1.0 | 4.0 | 0.00 | 0.00 | 0.00 | 58 | 1013.9 |
| 20260903215514 | 95 | 231 | 1.0 | 4.0 | 0.00 | 0.00 | 0.00 | 58 | 1013.9 |
| 20260903215013 | 95 | 281 | 1.0 | 7.0 | 0.00 | 0.00 | 0.00 | 56 | 1014.0 |
| 20260903214555 | 94 | 108 | 9.0 | 20.0 | 0.00 | 0.00 | 0.00 | 43 | 1009.6 |
| 20260903214537 | 95 | 180 | 3.0 | 7.0 | 0.00 | 0.00 | 0.00 | 58 | 1014.0 |
| 20260903214015 | 95 | 193 | 0.0 | 4.0 | 0.00 | 0.00 | 0.00 | 59 | 1014.0 |
| 20260903213505 | 95 | 274 | 1.0 | 6.0 | 0.00 | 0.00 | 0.00 | 57 | 1013.9 |
| 20260903213052 | 93 | 103 | 13.0 | 18.0 | 0.00 | 0.00 | 0.00 | 43 | 1009.7 |
| 20260903213018 | 96 | 190 | 1.0 | 6.0 | 0.00 | 0.00 | 0.00 | 57 | 1014.0 |
| 20260903212507 | 95 | 184 | 3.0 | 7.0 | 0.00 | 0.00 | 0.00 | 57 | 1014.0 |
| 20260903212008 | 95 | 188 | 3.0 | 7.0 | 0.00 | 0.00 | 0.00 | 57 | 1014.0 |
| 20260903211547 | 93 | 213 | 7.0 | 20.0 | 0.00 | 0.00 | 0.00 | 44 | 1009.8 |
| 20260903211516 | 95 | 169 | 2.0 | 7.0 | 0.00 | 0.00 | 0.00 | 57 | 1014.1 |
| 20260903211008 | 95 | 176 | 2.0 | 12.0 | 0.00 | 0.00 | 0.00 | 58 | 1014.1 |
| 20260903210511 | 95 | 172 | 5.0 | 12.0 | 0.00 | 0.00 | 0.00 | 57 | 1014.1 |
| 20260903210053 | 92 | 136 | 11.0 | 21.0 | 0.00 | 0.00 | 0.00 | 46 | 1010.1 |
| 20260903210024 | 95 | 173 | 0.0 | 5.0 | 0.00 | 0.00 | 0.00 | 57 | 1014.2 |
| 20260903205511 | 95 | 209 | 2.0 | 6.0 | 0.00 | 0.00 | 0.00 | 58 | 1014.2 |
| 20260903205011 | 95 | 184 | 1.0 | 6.0 | 0.00 | 0.00 | 0.00 | 57 | 1014.3 |
| 20260903204540 | 91 | 123 | 12.0 | 20.0 | 0.00 | 0.00 | 0.00 | 48 | 1010.2 |
| 20260903204528 | 95 | 200 | 2.0 | 7.0 | 0.00 | 0.00 | 0.00 | 56 | 1014.4 |
| 20260903204015 | 96 | 127 | 1.0 | 7.0 | 0.00 | 0.00 | 0.00 | 55 | 1014.3 |
| 20260903203516 | 96 | 224 | 2.0 | 6.0 | 0.00 | 0.00 | 0.00 | 58 | 1014.4 |
| 20260903203037 | 90 | 141 | 13.0 | 18.0 | 0.00 | 0.00 | 0.00 | 49 | 1010.4 |
| 20260903203030 | 95 | 181 | 3.0 | 6.0 | 0.00 | 0.00 | 0.00 | 56 | 1014.5 |
| 20260903202514 | 95 | 240 | 2.0 | 6.0 | 0.00 | 0.00 | 0.00 | 58 | 1014.5 |
| 20260903202004 | 95 | 84 | 2.0 | 11.0 | 0.00 | 0.00 | 0.00 | 56 | 1014.4 |
| 20260903201534 | 90 | 113 | 12.0 | 20.0 | 0.00 | 0.00 | 0.00 | 48 | 1010.5 |
| 20260903201517 | 95 | 180 | 3.0 | 11.0 | 0.00 | 0.00 | 0.00 | 57 | 1014.5 |
| 20260903201007 | 95 | 238 | 1.0 | 4.0 | 0.00 | 0.00 | 0.00 | 57 | 1014.5 |
| 20260903200507 | 95 | 162 | 1.0 | 4.0 | 0.00 | 0.00 | 0.00 | 56 | 1014.5 |
| 20260903200030 | 90 | 103 | 9.0 | 18.0 | 0.00 | 0.00 | 0.00 | 49 | 1010.6 |
| 20260903200019 | 95 | 252 | 1.0 | 3.0 | 0.00 | 0.00 | 0.00 | 59 | 1014.5 |
| 20260903195511 | 95 | 64 | 1.0 | 4.0 | 0.00 | 0.00 | 0.00 | 58 | 1014.5 |
| 20260903195011 | 95 | 93 | 1.0 | 4.0 | 0.00 | 0.00 | 0.00 | 57 | 1014.6 |
| 20260903194542 | 91 | 97 | 13.0 | 21.0 | 0.00 | 0.00 | 0.00 | 49 | 1010.8 |
| 20260903194523 | 95 | 111 | 2.0 | 4.0 | 0.00 | 0.00 | 0.00 | 56 | 1014.7 |
| 20260903194014 | 95 | 223 | 0.0 | 6.0 | 0.00 | 0.00 | 0.00 | 57 | 1014.7 |
| 20260903193521 | 95 | 17 | 0.0 | 6.0 | 0.00 | 0.00 | 0.00 | 56 | 1014.8 |
| 20260903193034 | 95 | 190 | 1.0 | 6.0 | 0.00 | 0.00 | 0.00 | 57 | 1014.9 |
| 20260903193023 | 90 | 129 | 12.0 | 19.0 | 0.00 | 0.00 | 0.00 | 49 | 1011.0 |
| 20260903192516 | 95 | 271 | 1.0 | 6.0 | 0.00 | 0.00 | 0.00 | 57 | 1014.9 |
| 20260903192003 | 94 | 117 | 2.0 | 5.0 | 0.00 | 0.00 | 0.00 | 58 | 1014.9 |
| 20260903191520 | 91 | 127 | 8.0 | 18.0 | 0.00 | 0.00 | 0.00 | 49 | 1011.4 |
| 20260903191509 | 94 | 178 | 1.0 | 5.0 | 0.00 | 0.00 | 0.00 | 60 | 1014.9 |
| 20260903191005 | 94 | 265 | 1.0 | 5.0 | 0.00 | 0.00 | 0.00 | 58 | 1015.0 |
| 20260903190507 | 94 | 22 | 1.0 | 4.0 | 0.00 | 0.00 | 0.00 | 59 | 1015.0 |
| 20260903190018 | 90 | 112 | 13.0 | 21.0 | 0.00 | 0.00 | 0.00 | 49 | 1011.8 |
| 20260903185509 | 94 | 265 | 1.0 | 5.0 | 0.00 | 0.00 | 0.00 | 60 | 1015.2 |
| 20260903185009 | 94 | 5 | 1.0 | 4.0 | 0.00 | 0.00 | 0.00 | 61 | 1015.2 |
| 20260903184519 | 94 | 270 | 1.0 | 5.0 | 0.00 | 0.00 | 0.00 | 61 | 1015.2 |
| 20260903184517 | 89 | 107 | 11.0 | 19.0 | 0.00 | 0.00 | 0.00 | 50 | 1012.0 |
| 20260903184010 | 93 | 253 | 2.0 | 6.0 | 0.00 | 0.00 | 0.00 | 60 | 1015.3 |
| 20260903183511 | 93 | 47 | 2.0 | 6.0 | 0.00 | 0.00 | 0.00 | 60 | 1015.3 |
| 20260903183024 | 93 | 306 | 1.0 | 6.0 | 0.00 | 0.00 | 0.00 | 62 | 1015.4 |
| 20260903183017 | 90 | 122 | 11.0 | 22.0 | 0.00 | 0.00 | 0.00 | 50 | 1012.2 |
| 20260903182503 | 93 | 321 | 2.0 | 6.0 | 0.00 | 0.00 | 0.00 | 62 | 1015.4 |
| 20260903182003 | 93 | 316 | 2.0 | 6.0 | 0.00 | 0.00 | 0.00 | 62 | 1015.4 |
| 20260903181516 | 91 | 116 | 10.0 | 17.0 | 0.00 | 0.00 | 0.00 | 50 | 1012.3 |
| 20260903181508 | 93 | 238 | 1.0 | 6.0 | 0.00 | 0.00 | 0.00 | 62 | 1015.4 |
| 20260903181004 | 93 | 192 | 1.0 | 6.0 | 0.00 | 0.00 | 0.00 | 62 | 1015.5 |
| 20260903180504 | 92 | 192 | 2.0 | 5.0 | 0.00 | 0.00 | 0.00 | 64 | 1015.7 |
| 20260903180035 | 92 | 36 | 2.0 | 6.0 | 0.00 | 0.00 | 0.00 | 63 | 1015.7 |
| 20260903180018 | 90 | 88 | 7.0 | 19.0 | 0.00 | 0.00 | 0.00 | 50 | 1012.6 |
| 20260903175505 | 92 | 271 | 1.0 | 6.0 | 0.00 | 0.00 | 0.00 | 61 | 1015.7 |
| 20260903175009 | 93 | 245 | 2.0 | 3.0 | 0.00 | 0.00 | 0.00 | 61 | 1015.8 |
| 20260903174519 | 93 | 238 | 1.0 | 6.0 | 0.00 | 0.00 | 0.00 | 60 | 1015.7 |
| 20260903174511 | 90 | 124 | 11.0 | 16.0 | 0.00 | 0.00 | 0.00 | 48 | 1012.8 |
| 20260903174010 | 94 | 149 | 2.0 | 6.0 | 0.00 | 0.00 | 0.00 | 57 | 1015.4 |
| 20260903173511 | 94 | 344 | 1.0 | 5.0 | 0.00 | 0.00 | 0.00 | 59 | 1015.4 |
| 20260903173031 | 94 | 198 | 3.0 | 8.0 | 0.00 | 0.00 | 0.00 | 59 | 1015.4 |
| 20260903173022 | 91 | 115 | 11.0 | 18.0 | 0.00 | 0.00 | 0.00 | 46 | 1012.8 |
| 20260903172514 | 94 | 21 | 2.0 | 8.0 | 0.00 | 0.00 | 0.00 | 60 | 1015.4 |
| 20260903172014 | 94 | 255 | 2.0 | 7.0 | 0.00 | 0.00 | 0.00 | 59 | 1015.5 |
| 20260903171528 | 93 | 289 | 2.0 | 7.0 | 0.00 | 0.00 | 0.00 | 61 | 1015.5 |
| 20260903171507 | 92 | 122 | 8.0 | 18.0 | 0.00 | 0.00 | 0.00 | 46 | 1013.1 |
| 20260903171003 | 93 | 311 | 3.0 | 9.0 | 0.00 | 0.00 | 0.00 | 59 | 1015.5 |
| 20260903170506 | 93 | 265 | 5.0 | 9.0 | 0.00 | 0.00 | 0.00 | 60 | 1015.5 |
| 20260903170008 | 93 | 196 | 3.0 | 9.0 | 0.00 | 0.00 | 0.00 | 62 | 1015.5 |
| 20260903170004 | 91 | 86 | 4.0 | 14.0 | 0.00 | 0.00 | 0.00 | 47 | 1012.9 |
| 20260903165504 | 93 | 262 | 3.0 | 8.0 | 0.00 | 0.00 | 0.00 | 60 | 1015.4 |
| 20260903165007 | 93 | 270 | 3.0 | 10.0 | 0.00 | 0.00 | 0.00 | 61 | 1015.4 |
| 20260903164514 | 93 | 277 | 1.0 | 10.0 | 0.00 | 0.00 | 0.00 | 61 | 1015.3 |
| 20260903164501 | 92 | 175 | 4.0 | 15.0 | 0.00 | 0.00 | 0.00 | 45 | 1012.9 |
| 20260903164008 | 93 | 165 | 2.0 | 13.0 | 0.00 | 0.00 | 0.00 | 61 | 1015.3 |
| 20260903163508 | 92 | 264 | 1.0 | 13.0 | 0.00 | 0.00 | 0.00 | 63 | 1015.2 |
| 20260903163100 | 94 | 134 | 0.0 | 7.0 | 0.00 | 0.00 | 0.00 | 42 | 1013.0 |
| 20260903163023 | 92 | 188 | 2.0 | 11.0 | 0.00 | 0.00 | 0.00 | 62 | 1015.2 |
| 20260903162511 | 92 | 171 | 4.0 | 11.0 | 0.00 | 0.00 | 0.00 | 62 | 1015.2 |
| 20260903162011 | 92 | 221 | 2.0 | 10.0 | 0.00 | 0.00 | 0.00 | 61 | 1015.3 |
| 20260903161552 | 92 | 139 | 4.0 | 7.0 | 0.00 | 0.00 | 0.00 | 46 | 1013.0 |
| 20260903161529 | 92 | 184 | 6.0 | 11.0 | 0.00 | 0.00 | 0.00 | 62 | 1015.2 |
| 20260903161013 | 92 | 286 | 3.0 | 11.0 | 0.00 | 0.00 | 0.00 | 62 | 1015.3 |
| 20260903160520 | 92 | 171 | 5.0 | 13.0 | 0.00 | 0.00 | 0.00 | 63 | 1015.4 |
| 20260903160049 | 89 | 119 | 1.0 | 11.0 | 0.00 | 0.00 | 0.00 | 49 | 1013.1 |
| 20260903160009 | 91 | 211 | 5.0 | 13.0 | 0.00 | 0.00 | 0.00 | 63 | 1015.3 |
| 20260903155504 | 91 | 179 | 3.0 | 10.0 | 0.00 | 0.00 | 0.00 | 64 | 1015.4 |
| 20260903155004 | 91 | 194 | 2.0 | 10.0 | 0.00 | 0.00 | 0.00 | 62 | 1015.4 |
| 20260903154546 | 89 | 116 | 2.0 | 11.0 | 0.00 | 0.00 | 0.00 | 49 | 1013.0 |
| 20260903154513 | 91 | 268 | 2.0 | 9.0 | 0.00 | 0.00 | 0.00 | 62 | 1015.4 |
| 20260903154010 | 91 | 199 | 3.0 | 9.0 | 0.00 | 0.00 | 0.00 | 63 | 1015.4 |
| 20260903153512 | 90 | 229 | 4.0 | 9.0 | 0.00 | 0.00 | 0.00 | 66 | 1015.5 |
| 20260903153043 | 89 | 163 | 1.0 | 5.0 | 0.00 | 0.00 | 0.00 | 50 | 1012.8 |
| 20260903153018 | 90 | 165 | 1.0 | 10.0 | 0.00 | 0.00 | 0.00 | 65 | 1015.5 |
| 20260903152510 | 90 | 196 | 3.0 | 10.0 | 0.00 | 0.00 | 0.00 | 66 | 1015.6 |
| 20260903152012 | 89 | 202 | 2.0 | 8.0 | 0.00 | 0.00 | 0.00 | 67 | 1015.6 |
| 20260903151540 | 89 | 117 | 0.0 | 3.0 | 0.00 | 0.00 | 0.00 | 50 | 1012.8 |
| 20260903151522 | 89 | 290 | 3.0 | 9.0 | 0.00 | 0.00 | 0.00 | 65 | 1015.6 |
| 20260903151013 | 89 | 278 | 2.0 | 10.0 | 0.00 | 0.00 | 0.00 | 66 | 1015.6 |
| 20260903150513 | 89 | 238 | 4.0 | 10.0 | 0.00 | 0.00 | 0.00 | 66 | 1015.6 |
| 20260903150048 | 89 | 153 | 0.0 | 1.0 | 0.00 | 0.00 | 0.00 | 52 | 1012.8 |
| 20260903150034 | 88 | 219 | 3.0 | 7.0 | 0.00 | 0.00 | 0.00 | 68 | 1015.6 |
| 20260903145514 | 88 | 192 | 2.0 | 7.0 | 0.00 | 0.00 | 0.00 | 68 | 1015.6 |
| 20260903145014 | 87 | 186 | 3.0 | 9.0 | 0.00 | 0.00 | 0.00 | 70 | 1015.7 |
| 20260903144539 | 86 | 138 | 0.0 | 5.0 | 0.00 | 0.00 | 0.00 | 56 | 1012.7 |
| 20260903144510 | 87 | 244 | 2.0 | 9.0 | 0.00 | 0.00 | 0.00 | 70 | 1015.6 |
| 20260903144004 | 86 | 266 | 4.0 | 9.0 | 0.00 | 0.00 | 0.00 | 70 | 1015.6 |
| 20260903143507 | 86 | 220 | 2.0 | 7.0 | 0.00 | 0.00 | 0.00 | 72 | 1015.6 |
| 20260903143036 | 82 | 117 | 1.0 | 10.0 | 0.00 | 0.00 | 0.00 | 57 | 1012.7 |
| 20260903143015 | 85 | 177 | 2.0 | 7.0 | 0.00 | 0.00 | 0.00 | 72 | 1015.5 |
| 20260903142508 | 85 | 184 | 1.0 | 9.0 | 0.00 | 0.00 | 0.00 | 73 | 1015.5 |
| 20260903142012 | 85 | 167 | 2.0 | 9.0 | 0.00 | 0.00 | 0.00 | 74 | 1015.4 |
| 20260903141532 | 81 | 155 | 0.0 | 8.0 | 0.00 | 0.00 | 0.00 | 57 | 1012.7 |
| 20260903141524 | 84 | 244 | 1.0 | 4.0 | 0.00 | 0.00 | 0.00 | 74 | 1015.3 |
| 20260903141013 | 84 | 257 | 2.0 | 8.0 | 0.00 | 0.00 | 0.00 | 73 | 1015.4 |
| 20260903140511 | 84 | 334 | 2.0 | 8.0 | 0.00 | 0.00 | 0.00 | 74 | 1015.4 |
| 20260903140038 | 83 | 251 | 2.0 | 7.0 | 0.00 | 0.00 | 0.00 | 75 | 1015.4 |
| 20260903140021 | 80 | 120 | 5.0 | 8.0 | 0.00 | 0.00 | 0.00 | 58 | 1012.8 |
| 20260903135514 | 83 | 162 | 3.0 | 7.0 | 0.00 | 0.00 | 0.00 | 75 | 1015.3 |
| 20260903135012 | 83 | 202 | 2.0 | 7.0 | 0.00 | 0.00 | 0.00 | 76 | 1015.3 |
| 20260903134535 | 79 | 110 | 4.0 | 7.0 | 0.00 | 0.00 | 0.00 | 57 | 1012.9 |
| 20260903134526 | 82 | 213 | 2.0 | 9.0 | 0.00 | 0.00 | 0.00 | 77 | 1015.3 |
| 20260903134015 | 81 | 256 | 3.0 | 9.0 | 0.00 | 0.00 | 0.00 | 77 | 1015.4 |
| 20260903133510 | 81 | 229 | 2.0 | 7.0 | 0.00 | 0.00 | 0.00 | 78 | 1015.3 |